ATLAS 5 CENTAUR DEB, 46604

Orbit data source: Space-Track

ATLAS 5 CENTAUR DEB, 46604 is space debris in HEO originally from a launch on Wed, 17 Oct 2018 UTC launched from the Air Force Eastern Test Range (AFETR). Debris objects in space refer to the collection of defunct objects orbiting the Earth. Examples of debris include non-operational satellites, rocket bodies, and fragments generated from explosions, collisions, or faulty payload assembly.

Loading next visibility...
Identifier
46604, 2018-079CC
Orbit
HEO
Country
Flag of USUS
Related business
Flag of USUnited Launch Alliance/Lockheed Martin (US)
Manufacturer
ULA Decatur
Mission
Spacecraft
Bus & Motor
Unknown
Mass
Unknown
Launch date (UTC)
2018-10-17 (8 years ago)
Launch vehicle
Unknown
Launch site
Air Force Eastern Test Range (AFETR)
Object type
Payload
Rocket body
Debris
Shape & HBR
Unknown shape, 1.1 m
Radar Cross Section
RCS unknown

Expand to show TLE details & history
Last TLE update: 2 days ago

TLE from 2 days ago
0 ATLAS 5 CENTAUR DEB
1 46604U 18079CC  26235.32668830 -.00000172  00000-0  00000-0 0  9990
2 46604  13.5313  48.4653 4589613 279.8033  32.8987  1.74528807 43079
Epoch: 2026-08-23T07:50Z
TLE epoch observation values (Epoch: 2026-08-23T07:50:25.869Z)
Latitude
-0°
Longitude
-40.68197°
Altitude
14,940.784 km
Speed
4.87 km/s
True Right ascension
03h 14m 12s
True Declination
0° 00' 00"
Sunlit
Object was in daylight at epoch
Visualization orbit readout
Latitude
Unknown
Longitude
Unknown
Altitude
Unknown
Speed
Unknown
Apparent Right ascension
Unknown
Apparent Declination
Unknown
Sunlit
N/A
Visualization observer readout
Local Sidereal Time
21:10:36
Azimuth
Unknown
Elevation
Unknown
Doppler factor
Unknown
Orbital elements
Apogee altitude
36,138.994 km
Perigee altitude
9,388.843 km
Semi-major axis
29,142.055 km
Eccentricity
0.45896
Inclination
13.5313°
RAAN
48.4653°
Arg. of periapsis
279.8033°
True anomaly
80.12667°
Mean anomaly
32.8987°
Eccentric anomaly
54.23673°
Mean motion
0.43628 °/min
Orbital period
825.16 mins
BSTAR
0
Loading maneuver chart data...
Computing Atmospheric mass density...

Documentation

Showing up to 5 results
|